Location: Unspecified
(0.0000°N, 0.0000°E)
Time: 01:06:53
(UTC+00:00)

COSMOS 2452 - Pass Details

Date: 21 May 2026
Orbit: 1481 x 1507 km, 82.5° (Epoch: 10 June)

Event Time Altitude Azimuth Distance (km) Brightness Sun altitude
Rises 02:16:02 0° 358° (N) 4,595 ? -50.4°
Reaches altitude 10° 02:18:54 10° 358° (N) 3,615 ? -49.8°
Enters shadow 02:20:40 18° 359° (N) 3,023 ? -49.4°
